TimePST,TemperatureF,Dew PointF,Humidity,Sea Level PressureIn,VisibilityMPH,Wind Direction,Wind SpeedMPH,Gust SpeedMPH,PrecipitationIn,Events,Conditions,WindDirDegrees,DateUTC
12:55 AM,46.9,25.0,42,29.91,10.0,WSW,5.8,-,N/A,,Scattered Clouds,240,2013-02-23 08:55:00
1:55 AM,46.0,24.1,42,29.86,10.0,West,18.4,28.8,N/A,,Partly Cloudy,260,2013-02-23 09:55:00
2:55 AM,46.0,21.9,39,29.82,10.0,West,16.1,28.8,N/A,,Scattered Clouds,280,2013-02-23 10:55:00
3:55 AM,44.1,26.1,49,29.87,10.0,West,19.6,31.1,N/A,,Mostly Cloudy,280,2013-02-23 11:55:00
4:55 AM,42.1,25.0,51,29.90,10.0,WNW,17.3,28.8,0.00,,Overcast,300,2013-02-23 12:55:00
5:25 AM,37.4,26.6,65,29.97,10.0,North,19.6,32.2,N/A,,Overcast,350,2013-02-23 13:25:00
5:39 AM,37.4,28.4,70,29.99,3.0,NW,20.7,32.2,0.00,Snow,Light Snow,320,2013-02-23 13:39:00
5:55 AM,37.0,28.0,70,29.98,3.0,WNW,20.7,27.6,0.00,Snow,Light Snow,300,2013-02-23 13:55:00
6:13 AM,37.4,26.6,65,30.00,10.0,NW,9.2,-,0.00,,Overcast,310,2013-02-23 14:13:00
6:55 AM,36.0,23.0,59,30.00,10.0,NW,10.4,-,0.00,,Scattered Clouds,320,2013-02-23 14:55:00
7:55 AM,34.0,21.9,61,30.06,10.0,NNE,15.0,-,N/A,,Scattered Clouds,20,2013-02-23 15:55:00
8:55 AM,35.1,16.0,46,30.11,10.0,North,20.7,27.6,N/A,,Scattered Clouds,10,2013-02-23 16:55:00
9:55 AM,34.0,14.0,44,30.12,10.0,NNE,24.2,32.2,N/A,,Mostly Cloudy,20,2013-02-23 17:55:00
10:55 AM,37.9,12.9,36,30.12,10.0,North,20.7,-,N/A,,Mostly Cloudy,10,2013-02-23 18:55:00
11:55 AM,39.0,10.9,32,30.13,10.0,North,20.7,26.5,N/A,,Mostly Cloudy,360,2013-02-23 19:55:00
12:55 PM,37.9,10.9,33,30.12,10.0,North,10.4,-,N/A,,Mostly Cloudy,360,2013-02-23 20:55:00
1:55 PM,41.0,8.1,26,30.10,10.0,NW,16.1,19.6,N/A,,Mostly Cloudy,320,2013-02-23 21:55:00
2:55 PM,39.9,10.0,29,30.11,10.0,North,18.4,26.5,N/A,,Mostly Cloudy,350,2013-02-23 22:55:00
3:55 PM,37.9,10.0,32,30.13,10.0,North,13.8,-,N/A,,Scattered Clouds,360,2013-02-23 23:55:00
4:55 PM,37.0,12.0,36,30.14,10.0,North,8.1,-,N/A,,Mostly Cloudy,360,2013-02-24 00:55:00
5:55 PM,35.1,14.0,42,30.19,10.0,NNE,9.2,-,N/A,,Mostly Cloudy,20,2013-02-24 01:55:00
6:55 PM,34.0,15.1,46,30.21,10.0,North,6.9,-,N/A,,Mostly Cloudy,10,2013-02-24 02:55:00
7:55 PM,33.1,14.0,46,30.23,10.0,Calm,Calm,-,N/A,,Mostly Cloudy,0,2013-02-24 03:55:00
8:55 PM,32.0,15.1,50,30.23,10.0,Calm,Calm,-,N/A,,Mostly Cloudy,0,2013-02-24 04:55:00
9:55 PM,30.0,14.0,51,30.27,10.0,NNW,4.6,-,N/A,,Mostly Cloudy,330,2013-02-24 05:55:00
10:55 PM,27.0,14.0,58,30.26,10.0,Calm,Calm,-,N/A,,Scattered Clouds,0,2013-02-24 06:55:00
11:55 PM,24.1,12.9,62,30.27,10.0,SSW,4.6,-,N/A,,Scattered Clouds,200,2013-02-24 07:55:00